Location: Bluff Heights
(33.7692°N, 118.1592°W)
Time: 13:26:42
(UTC+00:00)

S-56A Canister/Altair - Pass Details

Date: 31 July 2021
Orbit: 632 x 2500 km, 38.9° (Epoch: 25 September)

Event Time Altitude Azimuth Distance (km) Brightness Sun altitude
Rises 04:10:57 0° 292° (WNW) 6,181 13.8 -14.8°
Reaches altitude 10° 04:15:05 10° 291° (WNW) 5,135 13.0 -15.5°
Maximum altitude 04:29:51 78° 209° (SSW) 2,151 9.6 -18.0°
Enters shadow 04:37:18 26° 127° (SE) 3,022 9.9 -19.2°
